Vorticity
nan nan nan nan nan nan nan nan nan nan nan nan nan nan nan nan nan nan nan nan nan nan nan nan nan nan nan nan nan nan nan nan nan nan nan nan nan nan nan nan nan nan nan
nan 11 11 12 12 13 12 13 10 9 8 8 11 11 12 11 10 10 8 9 8 8 9 10 11 10 9 10 7 7 10 10 9 9 11 7 8 14 11 11 12 10 nan
nan 12 12 13 13 12 12 9 10 11 12 10 11 11 10 9 8 11 10 8 10 11 10 8 9 9 10 10 9 9 9 10 10 10 12 12 10 11 12 15 14 12 nan
nan 13 13 11 11 11 11 10 10 10 10 9 8 8 9 10 14 10 10 11 10 9 9 9 10 12 5 6 11 11 10 11 12 9 7 12 11 9 11 10 11 15 nan
nan 11 11 11 10 10 9 9 8 7 8 9 9 9 10 13 12 10 10 10 11 10 10 10 9 11 18 13 11 8 10 9 6 12 10 7 7 11 12 11 11 9 nan
nan 10 10 9 9 8 8 8 8 9 9 10 10 10 15 11 4 10 11 11 10 10 11 11 13 9 11 14 9 10 11 8 10 9 8 9 10 10 9 10 10 7 nan
nan 8 8 8 7 8 8 8 9 10 10 10 10 13 13 6 6 5 10 15 11 11 11 11 12 13 11 8 8 14 17 13 9 9 9 8 8 6 8 9 8 8 nan
nan 8 7 8 8 8 9 9 9 9 9 8 10 10 10 10 6 6 13 19 11 10 12 12 13 11 9 9 14 17 15 16 15 14 11 4 3 3 7 10 11 12 nan
nan 7 9 9 9 9 9 9 9 8 11 10 9 8 12 7 9 8 16 16 10 10 11 12 11 9 5 16 17 16 16 14 10 10 12 11 11 13 10 10 10 11 nan
nan 8 8 9 10 10 9 9 8 10 9 8 9 13 10 6 9 6 14 14 9 11 10 9 10 9 8 12 15 14 12 7 8 13 15 16 18 24 19 3 6 10 nan
nan 8 10 10 9 9 9 9 9 9 8 9 10 9 10 11 6 6 11 14 11 11 10 9 4 4 13 11 13 11 7 8 16 12 12 13 13 11 14 10 8 9 nan
nan 9 9 8 10 10 9 8 8 10 10 9 10 11 9 7 7 7 10 8 13 15 12 10 7 8 10 11 8 5 13 20 16 12 11 9 10 9 7 11 11 12 nan
nan 8 8 9 9 9 8 10 11 10 10 10 10 10 9 9 8 7 8 9 13 13 9 10 8 10 13 8 6 13 19 17 9 10 10 9 9 10 9 12 13 12 nan
nan 8 6 8 7 8 11 10 10 10 12 9 11 10 10 10 8 6 7 12 12 12 8 6 7 11 11 11 14 18 12 8 11 11 11 11 10 11 12 12 14 12 nan
nan 8 9 6 9 8 5 12 14 11 10 12 11 11 11 12 7 11 11 9 7 7 10 9 10 11 10 12 9 12 13 10 11 11 11 12 11 11 11 11 12 13 nan
nan 6 7 9 9 10 12 7 7 12 10 8 6 11 13 7 4 10 12 11 9 7 15 10 11 11 9 9 10 10 11 11 11 12 11 11 11 11 10 10 11 13 nan
nan 10 8 10 9 10 8 9 12 10 10 11 7 6 5 4 9 10 9 13 14 12 12 10 10 12 13 9 10 11 10 10 11 12 11 11 12 11 11 12 11 10 nan
nan 9 12 10 10 9 9 8 7 11 14 17 10 7 9 5 9 6 9 13 10 15 10 11 12 10 11 12 11 10 10 10 11 11 12 11 11 11 11 12 12 11 nan
nan 10 7 8 9 9 11 7 9 9 9 10 19 16 4 12 18 9 6 9 11 11 10 10 11 12 11 10 11 10 10 11 11 11 11 11 11 10 10 12 12 10 nan
nan 8 12 10 9 8 7 7 9 8 9 10 10 12 9 13 13 14 16 11 11 10 10 10 11 10 10 11 11 11 11 10 11 12 11 11 10 10 10 11 14 15 nan
nan 4 9 11 9 10 8 9 8 9 10 11 11 12 7 12 11 11 11 10 10 10 10 11 11 11 11 10 10 11 10 11 10 11 10 10 9 12 11 11 13 15 nan
nan 11 12 10 11 12 9 10 10 10 9 10 14 12 10 11 10 10 10 11 10 11 11 11 11 11 11 11 11 11 10 10 11 10 10 9 11 12 11 12 12 13 nan
nan 9 10 12 9 11 13 11 12 11 10 9 11 9 14 11 10 11 11 10 10 10 11 11 10 11 11 12 12 10 12 11 11 10 11 8 10 11 12 12 11 12 nan
nan 10 11 11 11 9 13 12 7 9 14 13 11 9 10 10 11 10 9 10 10 10 11 10 9 9 12 13 12 11 10 11 11 7 10 9 9 12 13 12 10 12 nan
nan 10 10 12 11 10 11 12 11 11 10 11 10 9 9 8 9 10 10 11 10 10 10 11 9 7 10 11 11 9 13 15 11 10 10 11 9 13 14 12 12 12 nan
nan nan nan nan nan nan nan nan nan nan nan nan nan nan nan nan nan nan nan nan nan nan nan nan nan nan nan nan nan nan nan nan nan nan nan nan nan nan nan nan nan nan nan
CAPE
2666 2659 2765 2759 2925 3139 3100 2937 2653 2376 1776 1427 1175 1199 1228 1271 1344 1617 1511 1065 981 802 735 564 414 394 144 74 54 35 37 36 35 27 55 197 388 261 338 304 357 543 330
2585 2740 2785 2827 2830 2810 2457 2226 1693 1410 1174 1165 1123 1311 1206 1192 947 761 587 522 320 180 119 173 154 100 334 392 134 357 383 449 143 703 281 372 232 301 240 577 372 350 377
2613 2651 2565 2649 2371 2123 1756 1395 1256 1092 991 1066 1009 852 741 571 394 209 112 90 65 82 113 179 195 219 248 275 315 227 177 129 208 86 52 109 167 341 378 446 733 855 413
2491 2607 2494 2153 1963 1653 1325 1158 1108 809 544 348 261 198 77 14 16 38 29 39 59 78 100 127 138 143 375 144 89 198 141 53 27 70 181 285 147 435 451 208 349 867 914
2390 2312 1802 1475 1308 1032 803 609 391 246 114 17 0 1 8 11 1 3 25 43 53 65 62 109 132 58 32 18 25 34 100 35 38 301 312 309 212 355 490 681 790 270 283
1890 1562 1158 927 639 369 168 34 0 0 2 7 8 11 26 0 0 0 0 1 50 62 80 40 38 88 52 31 0 0 14 48 164 129 374 410 196 276 754 867 843 644 251
1026 783 498 260 47 0 0 0 0 2 8 14 27 38 43 0 0 0 0 6 29 32 27 20 17 50 20 28 8 10 9 24 62 139 107 139 91 391 585 659 669 586 452
401 222 67 6 0 0 0 1 3 7 11 19 30 24 36 0 0 0 0 16 29 27 20 11 17 14 11 7 14 20 141 263 152 171 30 104 115 253 171 321 363 344 296
31 1 0 0 0 0 1 4 4 3 6 8 19 15 26 13 0 0 0 4 21 17 17 21 12 16 1 3 13 10 10 15 6 0 0 0 0 0 5 65 229 228 19
0 0 0 0 0 1 3 4 4 3 8 0 7 20 4 18 0 0 0 2 8 8 20 26 6 5 0 0 11 15 3 3 6 4 16 98 141 544 30 258 16 0 2
0 0 0 0 2 3 7 9 11 7 10 11 10 11 20 10 11 0 0 9 5 7 15 8 7 0 0 0 1 8 4 9 2 37 36 49 92 108 83 54 76 16 7
0 0 0 0 0 4 10 12 11 9 4 4 4 1 1 14 0 0 0 0 0 9 22 0 2 0 0 0 3 1 1 1 0 0 1 0 0 0 41 20 2 1 4
0 0 0 0 1 4 2 1 0 0 0 0 0 0 0 5 14 0 0 0 0 3 4 1 0 0 0 0 0 0 0 0 0 0 0 0 0 0 6 4 7 3 2
0 0 0 0 3 0 0 0 0 0 0 0 0 0 0 0 2 4 5 8 6 3 1 4 0 1 0 0 0 0 0 0 0 0 0 0 0 0 1 8 5 14 2
0 0 0 0 0 0 0 0 0 0 0 0 0 0 0 0 0 0 0 2 2 0 2 3 1 1 4 1 0 0 0 0 0 0 0 0 0 0 3 7 6 6 4
0 0 0 0 0 0 0 0 0 0 0 0 0 0 0 0 0 0 0 0 0 0 0 1 3 11 8 1 0 0 0 0 0 0 0 0 0 0 2 4 7 8 5
0 0 0 0 0 0 0 0 0 0 0 0 0 0 0 0 0 0 0 0 0 0 0 0 0 4 4 0 0 0 0 0 0 0 0 0 0 0 3 4 0 6 4
0 0 0 0 0 0 0 0 0 0 0 0 0 0 0 0 0 0 0 0 0 0 0 0 0 0 0 0 0 0 0 0 0 0 0 0 0 0 0 4 7 1 8
0 0 0 0 0 0 0 0 0 0 0 0 0 0 0 0 0 0 0 0 0 0 0 0 0 0 0 0 0 0 0 0 0 0 0 0 0 0 0 0 4 0 0
0 0 0 0 0 0 0 0 0 0 0 0 0 0 0 0 0 0 0 0 0 0 0 0 0 0 0 0 0 0 0 0 0 0 0 0 0 0 1 0 0 9 0
0 0 0 0 0 0 0 0 0 0 0 0 0 0 0 0 0 0 0 0 0 0 0 0 0 0 0 0 0 0 0 0 0 0 0 0 0 0 1 1 2 0 9
0 0 0 0 0 0 0 0 0 0 0 0 0 0 0 0 0 0 0 0 0 0 0 0 0 0 0 0 0 0 0 0 0 0 0 0 0 0 0 0 0 0 5
0 0 0 0 0 0 0 0 0 0 0 0 0 0 0 0 0 0 0 0 0 0 0 0 0 0 0 0 0 0 0 0 0 0 0 0 4 0 0 0 0 0 0
0 0 0 0 0 0 0 0 0 0 0 0 0 0 0 0 0 0 0 0 0 0 0 0 0 0 0 0 0 0 0 0 0 0 0 1 7 0 0 0 0 0 1
0 0 0 0 0 0 0 0 0 0 0 0 0 0 0 0 0 0 0 0 0 0 0 0 0 0 0 0 0 1 0 0 0 0 0 0 2 0 0 0 0 0 1
0 0 0 0 0 0 0 0 0 0 0 0 0 0 0 0 0 0 0 0 0 0 0 0 0 0 0 0 0 0 0 0 0 0 0 2 0 0 0 0 0 0 2